Find Shi Jian 12

NORAD ID: 36596 Int'l Des: 2010-027 Owner: CASC Country: CN operational
LEOCIRCULARRETROGRADESSO

当前视图

正在加载3D地球...

About Shi Jian 12

Shi Jian 12 (NORAD 36596) is a satellite launched Jun 15, 2010 by CASC of CN. It operates in LEO, CIRCULAR, RETROGRADE, SSO orbit with a mass of 1000.00 kg.

关于 Shi Jian 12

正在加载描述...

即将过境

Passes for default location (London). Set your location on the main map for personalized predictions.

高度历史

Loading altitude history...

两行轨道根数

1 36596U 10027A 26160.53883501 .00004758 00000-0 24661-3 0 9993
2 36596 97.7623 178.0497 0008136 117.7929 242.4129 15.16653204873707
Epoch: Jun 9, 2026 • Age: 4 hours

当前状态

高度 548.4 km
速度 7.58 km/s
星下点 -78.37°S, 160.25°E
发射日期 Jun 15, 2010
运行时间 15.9 years
类型 other

技术详情

分类 Payload
质量 1000.00 kg
干质量 1000.00 kg
总质量 1000.00 kg
长度 1.40 m
直径 1.40 m
跨度 8.60 m
形状 Box + 2 Pan
制造商 SAST
平台类型 FY-1
阶段状态 In Orbit
所有者/国家 CASC/CN

Most Searched